contact: severine.martini@mio.osupytheas.fr, dominique.lefevre@mio.osupytheas.fr
Project:EMSO Ligure-ouest http://www.emso-fr.org/EMSO-France
Sensor Optode, line 4330 Serial 272 
DOI : "https://doi.org/10.17882/97948" 
Title:EMSO Ligure Ouest : Data BathyDock capteur Optode - deploiement "2023-04-28"
Datetime,Profondeur,Latitude,Longitude,optode_type,serial,O2_concentration,O2_saturation,Temperature,Calibrated_Phase,Temp_Compensated_Phase,phase_blue_light,phase_red_light,Amplitude_blue_light,Amplitude_red_light,thermistor_bridge
time,m,degree_north,degree_east,1,1,umol.l-1,%,degree_C,degree,degree,degree,degree,mV,mV,mV
2023-12-14T00:00:07,2420,42.8014,5.9826,4330,272,186.358,57.068,13.304,36.049,36.629,41.217,4.588,295.6,545.1,291.4
2023-12-14T00:03:08,2420,42.8014,5.9826,4330,272,186.278,57.043,13.303,36.055,36.635,41.223,4.588,295.7,545.2,291.5
2023-12-14T00:06:08,2420,42.8014,5.9826,4330,272,186.612,57.145,13.303,36.033,36.613,41.203,4.590,295.6,545.1,291.5
2023-12-14T00:09:07,2420,42.8014,5.9826,4330,272,186.434,57.091,13.304,36.044,36.624,41.212,4.587,295.6,545.1,291.4
2023-12-14T00:12:07,2420,42.8014,5.9826,4330,272,186.606,57.145,13.304,36.034,36.614,41.204,4.590,295.7,545.1,291.4
2023-12-14T00:15:07,2420,42.8014,5.9826,4330,272,186.396,57.079,13.303,36.048,36.628,41.210,4.583,295.7,545.2,291.5
2023-12-14T00:18:07,2420,42.8014,5.9826,4330,272,186.435,57.091,13.303,36.045,36.625,41.211,4.587,295.7,545.2,291.5
2023-12-14T00:21:08,2420,42.8014,5.9826,4330,272,186.546,57.127,13.305,36.037,36.617,41.209,4.593,295.7,545.1,291.4
2023-12-14T00:24:07,2420,42.8014,5.9826,4330,272,186.278,57.043,13.303,36.055,36.635,41.220,4.585,295.6,545.1,291.4
2023-12-14T00:27:07,2420,42.8014,5.9826,4330,272,186.439,57.093,13.304,36.044,36.624,41.212,4.589,295.7,545.2,291.4
2023-12-14T00:30:07,2420,42.8014,5.9826,4330,272,186.436,57.094,13.305,36.044,36.624,41.209,4.585,295.6,545.2,291.4
2023-12-14T00:33:08,2420,42.8014,5.9826,4330,272,186.605,57.145,13.305,36.033,36.613,41.201,4.589,295.6,545.1,291.4
2023-12-14T00:36:08,2420,42.8014,5.9826,4330,272,186.581,57.137,13.304,36.035,36.615,41.205,4.590,295.7,545.1,291.4
2023-12-14T00:39:08,2420,42.8014,5.9826,4330,272,186.467,57.101,13.303,36.043,36.623,41.213,4.590,295.6,545.1,291.5
2023-12-14T00:42:08,2420,42.8014,5.9826,4330,272,186.637,57.154,13.304,36.031,36.611,41.193,4.582,295.6,545.2,291.4
2023-12-14T00:45:07,2420,42.8014,5.9826,4330,272,186.417,57.091,13.307,36.044,36.624,41.216,4.592,295.7,545.1,291.3
2023-12-14T00:48:07,2420,42.8014,5.9826,4330,272,186.407,57.085,13.305,36.045,36.625,41.213,4.587,295.6,545.1,291.4
2023-12-14T00:51:07,2420,42.8014,5.9826,4330,272,186.683,57.168,13.304,36.028,36.608,41.199,4.591,295.7,545.1,291.4
2023-12-14T00:54:07,2420,42.8014,5.9826,4330,272,186.432,57.091,13.304,36.044,36.624,41.212,4.588,295.7,545.1,291.4
2023-12-14T00:57:07,2420,42.8014,5.9826,4330,272,186.583,57.140,13.306,36.034,36.614,41.200,4.586,295.6,545.1,291.4
2023-12-14T01:00:08,2420,42.8014,5.9826,4330,272,186.685,57.172,13.306,36.027,36.607,41.196,4.589,295.7,545.1,291.3
2023-12-14T01:03:07,2420,42.8014,5.9826,4330,272,186.498,57.116,13.308,36.038,36.618,41.205,4.587,295.6,545.1,291.3
2023-12-14T01:06:08,2420,42.8014,5.9826,4330,272,186.395,57.084,13.308,36.045,36.625,41.215,4.590,295.7,545.1,291.3
2023-12-14T01:09:08,2420,42.8014,5.9826,4330,272,186.565,57.134,13.306,36.035,36.615,41.201,4.586,295.7,545.1,291.4
2023-12-14T01:12:08,2420,42.8014,5.9826,4330,272,186.504,57.116,13.306,36.039,36.619,41.208,4.589,295.7,545.1,291.4
2023-12-14T01:15:08,2420,42.8014,5.9826,4330,272,186.508,57.115,13.305,36.039,36.619,41.213,4.594,295.7,545.2,291.4
2023-12-14T01:18:07,2420,42.8014,5.9826,4330,272,186.538,57.125,13.305,36.037,36.617,41.206,4.589,295.7,545.2,291.4
2023-12-14T01:21:07,2420,42.8014,5.9826,4330,272,186.633,57.152,13.303,36.032,36.612,41.203,4.591,295.6,545.1,291.5
2023-12-14T01:24:07,2420,42.8014,5.9826,4330,272,186.456,57.099,13.305,36.043,36.623,41.211,4.588,295.7,545.1,291.4
2023-12-14T01:27:07,2420,42.8014,5.9826,4330,272,186.534,57.125,13.306,36.037,36.617,41.204,4.586,295.7,545.2,291.4
2023-12-14T01:30:07,2420,42.8014,5.9826,4330,272,186.568,57.133,13.304,36.036,36.616,41.203,4.587,295.6,545.1,291.4
2023-12-14T01:33:07,2420,42.8014,5.9826,4330,272,186.379,57.075,13.304,36.048,36.628,41.213,4.585,295.7,545.1,291.4
2023-12-14T01:36:07,2420,42.8014,5.9826,4330,272,186.722,57.181,13.305,36.026,36.606,41.193,4.587,295.6,545.1,291.4
2023-12-14T01:39:07,2420,42.8014,5.9826,4330,272,186.470,57.107,13.308,36.040,36.620,41.207,4.587,295.7,545.1,291.3
2023-12-14T01:42:08,2420,42.8014,5.9826,4330,272,186.532,57.126,13.307,36.037,36.617,41.208,4.591,295.7,545.2,291.3
2023-12-14T01:45:08,2420,42.8014,5.9826,4330,272,186.665,57.168,13.308,36.028,36.608,41.201,4.594,295.7,545.1,291.3
2023-12-14T01:48:08,2420,42.8014,5.9826,4330,272,186.561,57.132,13.305,36.036,36.616,41.207,4.591,295.7,545.1,291.4
2023-12-14T01:51:08,2420,42.8014,5.9826,4330,272,186.380,57.078,13.306,36.047,36.627,41.213,4.586,295.7,545.1,291.4
2023-12-14T01:54:08,2420,42.8014,5.9826,4330,272,186.578,57.140,13.307,36.033,36.613,41.199,4.586,295.7,545.1,291.3
2023-12-14T01:57:07,2420,42.8014,5.9826,4330,272,186.515,57.119,13.305,36.039,36.619,41.206,4.587,295.7,545.2,291.4
2023-12-14T02:00:07,2420,42.8014,5.9826,4330,272,186.662,57.166,13.307,36.028,36.608,41.193,4.585,295.7,545.1,291.3
2023-12-14T02:03:07,2420,42.8014,5.9826,4330,272,186.656,57.163,13.307,36.029,36.609,41.195,4.586,295.6,545.1,291.3
2023-12-14T02:06:07,2420,42.8014,5.9826,4330,272,186.582,57.140,13.306,36.034,36.614,41.201,4.587,295.6,545.1,291.4
2023-12-14T02:09:07,2420,42.8014,5.9826,4330,272,186.543,57.130,13.308,36.035,36.615,41.202,4.587,295.6,545.1,291.3
2023-12-14T02:12:07,2420,42.8014,5.9826,4330,272,186.720,57.181,13.305,36.025,36.605,41.193,4.588,295.7,545.2,291.4
2023-12-14T02:15:08,2420,42.8014,5.9826,4330,272,186.531,57.124,13.306,36.037,36.617,41.205,4.587,295.6,545.1,291.3
2023-12-14T02:18:08,2420,42.8014,5.9826,4330,272,186.601,57.145,13.305,36.033,36.613,41.205,4.592,295.7,545.1,291.4
2023-12-14T02:21:08,2420,42.8014,5.9826,4330,272,186.522,57.125,13.309,36.036,36.617,41.203,4.586,295.7,545.2,291.3
2023-12-14T02:24:08,2420,42.8014,5.9826,4330,272,186.374,57.080,13.309,36.046,36.626,41.211,4.585,295.6,545.1,291.3
2023-12-14T02:27:07,2420,42.8014,5.9826,4330,272,186.553,57.133,13.307,36.035,36.615,41.197,4.582,295.6,545.1,291.3
2023-12-14T02:30:07,2420,42.8014,5.9826,4330,272,186.520,57.127,13.311,36.036,36.616,41.203,4.588,295.7,545.0,291.2
2023-12-14T02:33:07,2420,42.8014,5.9826,4330,272,186.491,57.114,13.307,36.039,36.619,41.205,4.586,295.6,545.1,291.3
2023-12-14T02:36:07,2420,42.8014,5.9826,4330,272,186.527,57.124,13.307,36.037,36.617,41.206,4.590,295.6,545.1,291.3
2023-12-14T02:39:08,2420,42.8014,5.9826,4330,272,186.438,57.096,13.306,36.043,36.623,41.210,4.587,295.6,545.1,291.3
2023-12-14T02:42:08,2420,42.8014,5.9826,4330,272,186.245,57.042,13.310,36.054,36.634,41.218,4.584,295.6,545.1,291.2
2023-12-14T02:45:08,2420,42.8014,5.9826,4330,272,186.442,57.106,13.313,36.040,36.620,41.212,4.592,295.7,545.1,291.1
2023-12-14T02:48:07,2420,42.8014,5.9826,4330,272,186.524,57.129,13.312,36.034,36.614,41.200,4.586,295.6,545.1,291.2
2023-12-14T02:51:07,2420,42.8014,5.9826,4330,272,186.776,57.202,13.308,36.020,36.600,41.192,4.591,295.6,545.1,291.3
2023-12-14T02:54:07,2420,42.8014,5.9826,4330,272,186.682,57.179,13.313,36.024,36.604,41.194,4.590,295.7,545.1,291.1
2023-12-14T02:57:07,2420,42.8014,5.9826,4330,272,186.585,57.148,13.312,36.031,36.611,41.200,4.589,295.7,545.1,291.2
2023-12-14T03:00:08,2420,42.8014,5.9826,4330,272,186.702,57.187,13.314,36.022,36.603,41.189,4.586,295.7,545.1,291.1
2023-12-14T03:03:07,2420,42.8014,5.9826,4330,272,186.278,57.051,13.309,36.052,36.632,41.220,4.588,295.6,545.0,291.2
2023-12-14T03:06:07,2420,42.8014,5.9826,4330,272,186.606,57.155,13.312,36.029,36.609,41.199,4.590,295.7,545.0,291.2
2023-12-14T03:09:07,2420,42.8014,5.9826,4330,272,186.409,57.092,13.310,36.043,36.623,41.210,4.587,295.7,545.1,291.2
2023-12-14T03:12:08,2420,42.8014,5.9826,4330,272,186.442,57.110,13.317,36.038,36.618,41.207,4.589,295.6,545.0,291.0
2023-12-14T03:15:08,2420,42.8014,5.9826,4330,272,186.650,57.168,13.312,36.027,36.607,41.194,4.587,295.6,545.1,291.2
2023-12-14T03:18:07,2420,42.8014,5.9826,4330,272,186.297,57.061,13.313,36.049,36.629,41.214,4.584,295.7,545.1,291.1
2023-12-14T03:21:07,2420,42.8014,5.9826,4330,272,186.566,57.142,13.311,36.033,36.613,41.202,4.589,295.6,545.0,291.2
2023-12-14T03:24:07,2420,42.8014,5.9826,4330,272,186.592,57.148,13.310,36.031,36.611,41.198,4.586,295.6,545.1,291.2
2023-12-14T03:27:07,2420,42.8014,5.9826,4330,272,186.423,57.096,13.310,36.042,36.622,41.209,4.587,295.7,545.0,291.2
2023-12-14T03:30:08,2420,42.8014,5.9826,4330,272,186.658,57.172,13.313,36.025,36.606,41.192,4.587,295.5,545.0,291.1
2023-12-14T03:33:07,2420,42.8014,5.9826,4330,272,186.475,57.118,13.315,36.036,36.616,41.204,4.587,295.7,545.0,291.1
2023-12-14T03:36:07,2420,42.8014,5.9826,4330,272,186.629,57.165,13.314,36.027,36.607,41.191,4.584,295.6,545.1,291.1
2023-12-14T03:39:07,2420,42.8014,5.9826,4330,272,186.357,57.082,13.314,36.045,36.625,41.209,4.584,295.7,545.1,291.1
2023-12-14T03:42:08,2420,42.8014,5.9826,4330,272,186.322,57.071,13.315,36.046,36.626,41.212,4.586,295.7,545.1,291.1
2023-12-14T03:45:08,2420,42.8014,5.9826,4330,272,186.400,57.094,13.314,36.042,36.622,41.212,4.590,295.6,545.1,291.1
2023-12-14T03:48:08,2420,42.8014,5.9826,4330,272,186.410,57.097,13.314,36.041,36.621,41.207,4.586,295.7,545.0,291.1
2023-12-14T03:51:08,2420,42.8014,5.9826,4330,272,186.358,57.083,13.315,36.044,36.624,41.208,4.583,295.7,545.0,291.1
2023-12-14T03:54:07,2420,42.8014,5.9826,4330,272,186.585,57.155,13.317,36.028,36.608,41.194,4.586,295.6,544.9,291.0
2023-12-14T03:57:07,2420,42.8014,5.9826,4330,272,186.559,57.152,13.321,36.028,36.608,41.197,4.589,295.5,545.0,290.9
2023-12-14T04:00:07,2420,42.8014,5.9826,4330,272,186.428,57.105,13.316,36.039,36.619,41.209,4.590,295.7,545.0,291.0
2023-12-14T04:03:07,2420,42.8014,5.9826,4330,272,186.333,57.081,13.320,36.043,36.623,41.205,4.582,295.6,545.1,290.9
2023-12-14T04:06:07,2420,42.8014,5.9826,4330,272,186.324,57.075,13.317,36.045,36.625,41.219,4.594,295.7,545.0,291.0
2023-12-14T04:09:08,2420,42.8014,5.9826,4330,272,186.208,57.042,13.319,36.052,36.631,41.215,4.584,295.6,545.1,290.9
2023-12-14T04:12:08,2420,42.8014,5.9826,4330,272,186.328,57.077,13.317,36.044,36.624,41.211,4.587,295.7,545.0,291.0
2023-12-14T04:15:07,2420,42.8014,5.9826,4330,272,186.486,57.120,13.313,36.037,36.617,41.209,4.592,295.7,545.0,291.1
2023-12-14T04:18:07,2420,42.8014,5.9826,4330,272,186.210,57.039,13.316,36.053,36.633,41.221,4.588,295.6,545.0,291.0
2023-12-14T04:21:07,2420,42.8014,5.9826,4330,272,186.550,57.138,13.312,36.032,36.613,41.200,4.588,295.7,545.1,291.2
2023-12-14T04:24:07,2420,42.8014,5.9826,4330,272,186.459,57.115,13.316,36.037,36.617,41.208,4.591,295.7,545.1,291.0
2023-12-14T04:27:07,2420,42.8014,5.9826,4330,272,186.438,57.106,13.314,36.039,36.619,41.207,4.588,295.7,545.0,291.1
2023-12-14T04:30:08,2420,42.8014,5.9826,4330,272,186.349,57.075,13.311,36.047,36.627,41.214,4.587,295.7,545.0,291.2
2023-12-14T04:33:07,2420,42.8014,5.9826,4330,272,186.439,57.105,13.313,36.040,36.620,41.209,4.589,295.7,545.1,291.1
2023-12-14T04:36:07,2420,42.8014,5.9826,4330,272,186.514,57.128,13.313,36.035,36.615,41.208,4.593,295.7,545.1,291.1
2023-12-14T04:39:07,2420,42.8014,5.9826,4330,272,186.509,57.128,13.314,36.034,36.614,41.201,4.587,295.7,545.1,291.1
2023-12-14T04:42:07,2420,42.8014,5.9826,4330,272,186.417,57.098,13.313,36.041,36.621,41.208,4.587,295.7,545.1,291.1
2023-12-14T04:45:07,2420,42.8014,5.9826,4330,272,186.319,57.072,13.316,36.046,36.626,41.211,4.585,295.7,545.1,291.0
2023-12-14T04:48:07,2420,42.8014,5.9826,4330,272,186.187,57.029,13.314,36.056,36.635,41.223,4.587,295.6,545.0,291.1
2023-12-14T04:51:08,2420,42.8014,5.9826,4330,272,186.361,57.089,13.319,36.042,36.622,41.209,4.587,295.7,545.1,290.9
2023-12-14T04:54:08,2420,42.8014,5.9826,4330,272,186.406,57.098,13.315,36.041,36.621,41.210,4.589,295.7,545.1,291.1
2023-12-14T04:57:08,2420,42.8014,5.9826,4330,272,186.489,57.124,13.316,36.035,36.615,41.204,4.589,295.7,545.1,291.0
2023-12-14T05:00:08,2420,42.8014,5.9826,4330,272,186.403,57.095,13.314,36.042,36.622,41.210,4.588,295.6,545.0,291.1
2023-12-14T05:03:07,2420,42.8014,5.9826,4330,272,186.375,57.086,13.313,36.044,36.624,41.213,4.589,295.7,545.0,291.1
2023-12-14T05:06:07,2420,42.8014,5.9826,4330,272,186.480,57.116,13.312,36.038,36.618,41.207,4.590,295.7,545.0,291.2
2023-12-14T05:09:07,2420,42.8014,5.9826,4330,272,186.531,57.132,13.312,36.034,36.614,41.204,4.589,295.6,545.1,291.2
2023-12-14T05:12:07,2420,42.8014,5.9826,4330,272,186.301,57.065,13.315,36.048,36.628,41.212,4.584,295.8,545.1,291.1
2023-12-14T05:15:07,2420,42.8014,5.9826,4330,272,186.288,57.058,13.313,36.050,36.629,41.215,4.585,295.7,545.0,291.1
2023-12-14T05:18:07,2420,42.8014,5.9826,4330,272,186.555,57.146,13.318,36.030,36.610,41.199,4.589,295.7,545.0,291.0
2023-12-14T05:21:08,2420,42.8014,5.9826,4330,272,186.612,57.157,13.312,36.029,36.609,41.197,4.588,295.7,545.0,291.1
2023-12-14T05:24:07,2420,42.8014,5.9826,4330,272,186.465,57.117,13.317,36.036,36.616,41.206,4.590,295.7,545.0,291.0
2023-12-14T05:27:07,2420,42.8014,5.9826,4330,272,186.632,57.163,13.312,36.027,36.607,41.198,4.591,295.7,545.0,291.2
2023-12-14T05:30:08,2420,42.8014,5.9826,4330,272,186.419,57.098,13.312,36.042,36.622,41.207,4.585,295.7,545.1,291.2
2023-12-14T05:33:07,2420,42.8014,5.9826,4330,272,186.353,57.081,13.315,36.044,36.624,41.216,4.591,295.7,545.1,291.1
2023-12-14T05:36:07,2420,42.8014,5.9826,4330,272,186.587,57.157,13.318,36.028,36.608,41.195,4.588,295.7,545.0,291.0
2023-12-14T05:39:07,2420,42.8014,5.9826,4330,272,186.503,57.132,13.319,36.033,36.613,41.205,4.592,295.7,545.1,290.9
2023-12-14T05:42:08,2420,42.8014,5.9826,4330,272,186.407,57.114,13.328,36.034,36.614,41.207,4.593,295.7,545.0,290.7
2023-12-14T05:45:08,2420,42.8014,5.9826,4330,272,185.993,56.995,13.334,36.058,36.638,41.224,4.586,295.6,545.1,290.4
2023-12-14T05:48:08,2420,42.8014,5.9826,4330,272,186.052,56.991,13.316,36.063,36.643,41.228,4.585,295.7,545.0,291.0
2023-12-14T05:51:08,2420,42.8014,5.9826,4330,272,186.535,57.141,13.318,36.031,36.611,41.200,4.589,295.7,545.0,291.0
2023-12-14T05:54:08,2420,42.8014,5.9826,4330,272,186.219,57.060,13.331,36.046,36.626,41.210,4.584,295.7,545.1,290.6
2023-12-14T05:57:07,2420,42.8014,5.9826,4330,272,186.400,57.114,13.330,36.034,36.614,41.204,4.590,295.8,545.0,290.6
2023-12-14T06:00:07,2420,42.8014,5.9826,4330,272,186.427,57.110,13.320,36.037,36.617,41.205,4.587,295.8,545.1,290.9
2023-12-14T06:03:07,2420,42.8014,5.9826,4330,272,186.282,57.077,13.328,36.043,36.623,41.208,4.585,295.7,545.0,290.6
2023-12-14T06:06:07,2420,42.8014,5.9826,4330,272,186.215,57.055,13.328,36.047,36.627,41.212,4.585,295.7,545.1,290.6
2023-12-14T06:09:07,2420,42.8014,5.9826,4330,272,186.148,57.037,13.330,36.050,36.630,41.217,4.587,295.8,545.1,290.6
2023-12-14T06:12:08,2420,42.8014,5.9826,4330,272,186.290,57.073,13.324,36.044,36.624,41.215,4.591,295.8,545.0,290.8
2023-12-14T06:15:08,2420,42.8014,5.9826,4330,272,186.276,57.076,13.330,36.043,36.623,41.211,4.588,295.8,544.9,290.6
2023-12-14T06:18:08,2420,42.8014,5.9826,4330,272,186.330,57.098,13.334,36.037,36.617,41.204,4.587,295.7,544.9,290.4
2023-12-14T06:21:08,2420,42.8014,5.9826,4330,272,186.247,57.066,13.328,36.044,36.624,41.213,4.588,295.7,545.0,290.6
2023-12-14T06:24:07,2420,42.8014,5.9826,4330,272,186.224,57.053,13.324,36.048,36.628,41.222,4.593,295.7,545.1,290.8
2023-12-14T06:27:07,2420,42.8014,5.9826,4330,272,186.253,57.062,13.324,36.046,36.626,41.209,4.583,295.8,545.1,290.8
2023-12-14T06:30:07,2420,42.8014,5.9826,4330,272,186.280,57.058,13.315,36.049,36.629,41.216,4.586,295.7,545.0,291.1
2023-12-14T06:33:07,2420,42.8014,5.9826,4330,272,186.557,57.152,13.322,36.028,36.608,41.204,4.596,295.7,545.0,290.8
2023-12-14T06:36:07,2420,42.8014,5.9826,4330,272,186.400,57.104,13.322,36.038,36.618,41.205,4.587,295.7,545.0,290.8
2023-12-14T06:39:07,2420,42.8014,5.9826,4330,272,186.435,57.109,13.317,36.038,36.618,41.208,4.590,295.7,545.1,291.0
2023-12-14T06:42:07,2420,42.8014,5.9826,4330,272,186.246,57.067,13.330,36.044,36.624,41.212,4.588,295.7,545.0,290.6
2023-12-14T06:45:08,2420,42.8014,5.9826,4330,272,186.184,57.049,13.330,36.048,36.628,41.216,4.588,295.7,545.0,290.6
2023-12-14T06:48:08,2420,42.8014,5.9826,4330,272,186.188,57.044,13.326,36.050,36.630,41.218,4.589,295.8,544.9,290.7
2023-12-14T06:51:08,2420,42.8014,5.9826,4330,272,186.240,57.051,13.319,36.050,36.630,41.217,4.587,295.8,545.0,290.9
2023-12-14T06:54:07,2420,42.8014,5.9826,4330,272,186.441,57.118,13.323,36.035,36.615,41.204,4.588,295.7,545.0,290.8
2023-12-14T06:57:07,2420,42.8014,5.9826,4330,272,185.758,56.903,13.318,36.082,36.661,41.246,4.585,295.9,545.1,291.0
2023-12-14T07:00:08,2420,42.8014,5.9826,4330,272,186.010,56.978,13.316,36.067,36.646,41.235,4.589,295.7,545.0,291.0
2023-12-14T07:03:07,2420,42.8014,5.9826,4330,272,186.241,57.054,13.321,36.049,36.629,41.216,4.587,295.8,545.1,290.9
2023-12-14T07:06:07,2420,42.8014,5.9826,4330,272,186.148,57.030,13.324,36.053,36.633,41.220,4.587,295.7,545.0,290.8
2023-12-14T07:09:08,2420,42.8014,5.9826,4330,272,186.288,57.073,13.324,36.044,36.624,41.215,4.591,295.8,545.1,290.8
2023-12-14T07:12:08,2420,42.8014,5.9826,4330,272,186.043,56.999,13.325,36.060,36.639,41.229,4.589,295.8,545.0,290.7
2023-12-14T07:15:08,2420,42.8014,5.9826,4330,272,186.262,57.057,13.318,36.049,36.629,41.217,4.588,295.8,545.1,291.0
2023-12-14T07:18:08,2420,42.8014,5.9826,4330,272,186.580,57.150,13.315,36.030,36.610,41.197,4.587,295.8,545.2,291.1
2023-12-14T07:21:08,2420,42.8014,5.9826,4330,272,186.170,57.027,13.317,36.055,36.635,41.222,4.587,295.8,545.1,291.0
2023-12-14T07:24:07,2420,42.8014,5.9826,4330,272,186.215,57.045,13.320,36.051,36.631,41.214,4.583,295.8,545.1,290.9
2023-12-14T07:27:07,2420,42.8014,5.9826,4330,272,186.415,57.106,13.319,36.038,36.618,41.207,4.588,295.7,545.1,290.9
2023-12-14T07:30:07,2420,42.8014,5.9826,4330,272,186.067,56.999,13.319,36.061,36.641,41.231,4.590,295.8,545.1,290.9
2023-12-14T07:33:07,2420,42.8014,5.9826,4330,272,186.148,57.018,13.315,36.057,36.637,41.225,4.588,295.8,545.0,291.1
2023-12-14T07:36:07,2420,42.8014,5.9826,4330,272,186.345,57.082,13.318,36.044,36.624,41.216,4.592,295.7,545.1,291.0
2023-12-14T07:39:08,2420,42.8014,5.9826,4330,272,186.227,57.043,13.315,36.053,36.633,41.224,4.591,295.8,545.0,291.1
2023-12-14T07:42:08,2420,42.8014,5.9826,4330,272,186.326,57.076,13.317,36.045,36.625,41.211,4.586,295.7,545.1,291.0
2023-12-14T07:45:08,2420,42.8014,5.9826,4330,272,186.097,57.007,13.318,36.060,36.640,41.228,4.589,295.8,545.1,290.9
2023-12-14T07:48:08,2420,42.8014,5.9826,4330,272,186.199,57.033,13.314,36.055,36.635,41.220,4.585,295.8,545.1,291.1
2023-12-14T07:51:07,2420,42.8014,5.9826,4330,272,186.107,57.005,13.314,36.060,36.640,41.226,4.586,295.8,545.1,291.1
2023-12-14T07:54:07,2420,42.8014,5.9826,4330,272,186.259,57.050,13.313,36.051,36.631,41.221,4.589,295.8,545.1,291.1
2023-12-14T07:57:07,2420,42.8014,5.9826,4330,272,186.251,57.048,13.314,36.052,36.632,41.223,4.591,295.8,545.1,291.1
2023-12-14T08:00:07,2420,42.8014,5.9826,4330,272,186.302,57.069,13.318,36.046,36.626,41.214,4.588,295.7,545.0,291.0
2023-12-14T08:03:07,2420,42.8014,5.9826,4330,272,186.290,57.059,13.312,36.050,36.630,41.219,4.590,295.7,545.1,291.1
2023-12-14T08:06:07,2420,42.8014,5.9826,4330,272,186.088,57.001,13.316,36.061,36.641,41.223,4.582,295.8,545.1,291.0
2023-12-14T08:09:07,2420,42.8014,5.9826,4330,272,186.301,57.068,13.317,36.046,36.626,41.220,4.593,295.8,545.0,291.0
2023-12-14T08:12:08,2420,42.8014,5.9826,4330,272,186.129,57.018,13.319,36.057,36.637,41.228,4.591,295.8,545.1,290.9
2023-12-14T08:15:08,2420,42.8014,5.9826,4330,272,186.392,57.088,13.311,36.044,36.624,41.211,4.587,295.8,545.1,291.2
2023-12-14T08:18:08,2420,42.8014,5.9826,4330,272,186.445,57.106,13.312,36.040,36.620,41.205,4.585,295.7,545.1,291.2
2023-12-14T08:21:08,2420,42.8014,5.9826,4330,272,186.401,57.096,13.316,36.041,36.621,41.207,4.586,295.7,545.1,291.0
2023-12-14T08:24:08,2420,42.8014,5.9826,4330,272,186.249,57.053,13.318,36.050,36.630,41.214,4.585,295.8,545.1,291.0
2023-12-14T08:27:07,2420,42.8014,5.9826,4330,272,186.151,57.019,13.315,36.057,36.637,41.225,4.587,295.8,545.1,291.1
2023-12-14T08:30:07,2420,42.8014,5.9826,4330,272,186.203,57.036,13.315,36.054,36.634,41.222,4.588,295.7,545.1,291.1
2023-12-14T08:33:07,2420,42.8014,5.9826,4330,272,186.458,57.108,13.310,36.039,36.619,41.209,4.590,295.7,545.1,291.2
2023-12-14T08:36:07,2420,42.8014,5.9826,4330,272,186.291,57.056,13.310,36.051,36.631,41.218,4.587,295.7,545.1,291.2
2023-12-14T08:39:07,2420,42.8014,5.9826,4330,272,186.270,57.052,13.312,36.051,36.631,41.215,4.584,295.8,545.1,291.2
2023-12-14T08:42:07,2420,42.8014,5.9826,4330,272,186.404,57.096,13.314,36.042,36.622,41.212,4.591,295.8,545.0,291.1
2023-12-14T08:45:08,2420,42.8014,5.9826,4330,272,186.356,57.076,13.310,36.046,36.626,41.214,4.588,295.6,545.0,291.2
2023-12-14T08:48:08,2420,42.8014,5.9826,4330,272,186.432,57.100,13.311,36.041,36.621,41.211,4.590,295.7,545.1,291.2
2023-12-14T08:51:08,2420,42.8014,5.9826,4330,272,186.307,57.063,13.312,36.049,36.629,41.213,4.584,295.7,545.2,291.2
2023-12-14T08:54:07,2420,42.8014,5.9826,4330,272,186.054,56.983,13.310,36.066,36.646,41.230,4.584,295.8,545.1,291.2
2023-12-14T08:57:07,2420,42.8014,5.9826,4330,272,186.280,57.052,13.310,36.052,36.632,41.222,4.590,295.7,545.1,291.2
2023-12-14T09:00:07,2420,42.8014,5.9826,4330,272,186.281,57.061,13.316,36.049,36.629,41.219,4.590,295.8,545.1,291.0
2023-12-14T09:03:07,2420,42.8014,5.9826,4330,272,186.168,57.018,13.310,36.059,36.639,41.225,4.586,295.8,545.1,291.2
2023-12-14T09:06:07,2420,42.8014,5.9826,4330,272,186.383,57.088,13.313,36.043,36.623,41.213,4.589,295.8,545.0,291.1
2023-12-14T09:09:07,2420,42.8014,5.9826,4330,272,186.205,57.029,13.310,36.057,36.636,41.223,4.587,295.8,545.1,291.2
2023-12-14T09:12:07,2420,42.8014,5.9826,4330,272,186.403,57.091,13.311,36.043,36.623,41.215,4.592,295.8,545.1,291.2
2023-12-14T09:15:08,2420,42.8014,5.9826,4330,272,186.191,57.025,13.310,36.057,36.637,41.223,4.586,295.8,545.1,291.2
2023-12-14T09:18:08,2420,42.8014,5.9826,4330,272,186.339,57.075,13.313,36.046,36.626,41.215,4.589,295.7,545.1,291.1
2023-12-14T09:21:07,2420,42.8014,5.9826,4330,272,186.298,57.058,13.310,36.050,36.630,41.219,4.589,295.7,545.0,291.2
2023-12-14T09:24:07,2420,42.8014,5.9826,4330,272,186.619,57.153,13.308,36.031,36.611,41.198,4.587,295.9,545.2,291.3
2023-12-14T09:27:07,2420,42.8014,5.9826,4330,272,186.412,57.090,13.308,36.044,36.624,41.213,4.589,295.7,545.1,291.3
2023-12-14T09:30:07,2420,42.8014,5.9826,4330,272,186.266,57.046,13.309,36.053,36.633,41.222,4.589,295.8,545.1,291.3
2023-12-14T09:33:07,2420,42.8014,5.9826,4330,272,186.266,57.046,13.309,36.053,36.633,41.219,4.585,295.8,545.1,291.3
2023-12-14T09:36:07,2420,42.8014,5.9826,4330,272,186.465,57.107,13.309,36.040,36.620,41.210,4.590,295.8,545.1,291.3
2023-12-14T09:39:07,2420,42.8014,5.9826,4330,272,186.476,57.111,13.309,36.039,36.619,41.211,4.592,295.8,545.0,291.3
2023-12-14T09:42:08,2420,42.8014,5.9826,4330,272,186.286,57.054,13.310,36.051,36.631,41.217,4.586,295.7,545.1,291.2
2023-12-14T09:45:08,2420,42.8014,5.9826,4330,272,186.385,57.083,13.309,36.046,36.626,41.214,4.589,295.7,545.1,291.3
2023-12-14T09:48:08,2420,42.8014,5.9826,4330,272,185.936,56.945,13.308,36.075,36.654,41.239,4.585,295.7,545.1,291.3
2023-12-14T09:51:08,2420,42.8014,5.9826,4330,272,186.423,57.094,13.309,36.043,36.623,41.210,4.587,295.8,545.1,291.3
2023-12-14T09:54:07,2420,42.8014,5.9826,4330,272,186.395,57.087,13.309,36.044,36.624,41.212,4.588,295.8,545.1,291.3
2023-12-14T09:57:07,2420,42.8014,5.9826,4330,272,186.625,57.155,13.308,36.030,36.611,41.205,4.594,295.7,545.1,291.3
2023-12-14T10:00:07,2420,42.8014,5.9826,4330,272,186.320,57.061,13.307,36.051,36.631,41.218,4.587,295.8,545.2,291.3